星链-11226 (STARLINK-11226)

导读 | 豆包AI

STARLINK-11226是美国太空探索技术公司(SpaceX)星链互联网卫星星座的一员,于2024年8月31日发射入轨。星链项目旨在为全球提供高速低延迟宽带互联网服务,该卫星承担着组网通信任务,依托星座部署,助力覆盖偏远地区、提供海上及航空移动互联服务,是SpaceX推进全球卫星互联网覆盖的重要组成部分。

基本信息
目录编号:
60907
目录名称:
STARLINK-11226
国际标识:
2024-154E
轨道中心:
EARTH
卫星名称:
星链-11226
卫星全名:
星链-11226 (STARLINK-11226)
卫星状态:
在轨 (已飞行632 天)
发射日期:
2024-08-31 UTC
国别 :
美国 (US)
星等 :
--
轨道信息
数据来源 国际轨道数据
星历时间: 2026-05-24T13:07:47+0800
1天前
查看轨道信息
半长轴: 6737.905km
偏心率: 0.0000634
轨道倾角: 53.159°
近地点辐角 41.501°
升交点赤经 119.149°
平近点角 318.605°
近地点: 359.34km
远地点: 360.196km
周期: 91.738分钟
每日圈数: 15.696958
详细信息
固有亮度:
5
最大亮度:
2.5
卫星平台:
Starlink V1.0
覆盖范围:
全球
运营商:
太空探索技术公司
运营商所在国:
美国
制造商(研发单位):
太空探索技术公司
制造商所在国:
美国
使用方式:
暂无
卫星简介
Starlink 计划是 SpaceX 推出的全球卫星互联网项目,通过发射低轨道卫星,为全球尤其是偏远地区提供高速、低延迟的互联网服务。自 2019 年起,Starlink 已部署数千颗卫星,旨在缩小全球数字鸿沟,推动互联网普及。该项目还为军事、航空等行业提供通信支持,带来广泛经济效益。
2D轨道图
3D轨道图
轨道高度分析图
轨道倾角分析图
轨道综合分析图
查看轨道综合分析图